Location: Quedlinburg
(51.7921°N, 11.1414°E)
Time: 20:09:37
(UTC+02:00)

RS-15 - Pass Details

Date: 13 March 2026
Orbit: 1893 x 2152 km, 64.8° (Epoch: 17 April)

Event Time Altitude Azimuth Distance (km) Brightness Sun altitude
Rises 19:40:56 0° 179° (S) 5,263 10.2 -13.8°
Reaches altitude 10° 19:44:27 10° 172° (S) 4,268 9.6 -14.3°
Maximum altitude 19:54:04 39° 109° (ESE) 2,651 8.2 -15.7°
Drops below altitude 10° 20:03:53 10° 47° (NE) 4,379 9.6 -17.2°
Sets 20:07:31 0° 40° (NE) 5,413 10.1 -17.7°
